Time,TemperatureF,DewpointF,PressureIn,WindDirection,WindDirectionDegrees,WindSpeedMPH,WindSpeedGustMPH,Humidity,HourlyPrecipIn,Conditions,Clouds,dailyrainin,SoftwareType,DateUTC
2013-07-30 00:12:00,54.0,42.0,-100.00,SW,229,2.0,4.0,63,0.00,,,-99.99,,2013-07-30 06:12:00,
2013-07-30 00:43:00,55.0,44.0,-100.00,SSW,196,2.0,3.0,68,0.00,,,-99.99,,2013-07-30 06:43:00,
2013-07-30 01:02:00,53.0,41.0,-100.00,SW,220,3.0,5.0,64,0.00,,,-99.99,,2013-07-30 07:02:00,
2013-07-30 01:13:00,54.0,40.0,-100.00,WSW,247,2.0,3.0,60,0.00,,,-99.99,,2013-07-30 07:13:00,
2013-07-30 01:43:00,57.0,39.0,-100.00,SW,223,5.0,7.0,51,0.00,,,-99.99,,2013-07-30 07:43:00,
2013-07-30 02:12:00,58.0,38.0,-100.00,SW,220,9.0,10.0,48,0.00,,,-99.99,,2013-07-30 08:12:00,
2013-07-30 02:43:00,58.0,39.0,-100.00,SW,220,11.0,14.0,49,0.00,,,-99.99,,2013-07-30 08:43:00,
2013-07-30 03:03:00,58.0,39.0,-100.00,SW,226,9.0,12.0,49,0.00,,,-99.99,,2013-07-30 09:03:00,
2013-07-30 03:13:00,58.0,39.0,-100.00,SW,219,11.0,12.0,49,0.00,,,-99.99,,2013-07-30 09:13:00,
2013-07-30 03:33:00,58.0,39.0,-100.00,SW,220,9.0,12.0,50,0.00,,,-99.99,,2013-07-30 09:33:00,
2013-07-30 04:43:00,57.0,38.0,-100.00,SSW,205,11.0,13.0,50,0.00,,,-99.99,,2013-07-30 10:43:00,
2013-07-30 05:43:00,53.0,39.0,-100.00,NW,323,1.0,4.0,59,0.00,,,-99.99,,2013-07-30 11:43:00,
2013-07-30 08:43:00,62.0,41.0,-100.00,West,272,16.0,25.0,46,0.00,,,-99.99,,2013-07-30 14:43:00,
2013-07-30 09:43:00,65.0,42.0,-100.00,West,264,18.0,26.0,43,0.00,,,-99.99,,2013-07-30 15:43:00,
2013-07-30 10:43:00,68.0,40.0,-100.00,West,260,18.0,26.0,36,0.00,,,-99.99,,2013-07-30 16:43:00,
2013-07-30 13:44:00,71.0,39.0,-100.00,WNW,296,17.0,27.0,31,0.00,,,-99.99,,2013-07-30 19:44:00,
2013-07-30 14:43:00,73.0,36.0,-100.00,NW,316,20.0,30.0,26,0.00,,,-99.99,,2013-07-30 20:43:00,
2013-07-30 15:42:00,73.0,38.0,-100.00,NW,309,10.0,19.0,28,0.00,,,-99.99,,2013-07-30 21:42:00,
2013-07-30 16:02:00,71.0,37.0,-100.00,WNW,295,16.0,24.0,29,0.00,,,-99.99,,2013-07-30 22:02:00,
2013-07-30 16:12:00,72.0,35.0,-100.00,WNW,295,12.0,21.0,25,0.00,,,-99.99,,2013-07-30 22:12:00,
2013-07-30 16:43:00,72.0,39.0,-100.00,WNW,291,9.0,13.0,30,0.00,,,-99.99,,2013-07-30 22:43:00,
2013-07-30 17:22:00,71.0,36.0,-100.00,West,275,12.0,22.0,28,0.00,,,-99.99,,2013-07-30 23:22:00,
2013-07-30 17:42:00,72.0,37.0,-100.00,West,263,17.0,26.0,28,0.00,,,-99.99,,2013-07-30 23:42:00,
2013-07-30 17:53:00,71.0,37.0,-100.00,West,263,20.0,27.0,28,0.00,,,-99.99,,2013-07-30 23:53:00,
2013-07-30 18:43:00,65.0,43.0,-100.00,NNE,25,11.0,15.0,43,0.00,,,-99.99,,2013-07-31 00:43:00,
2013-07-30 19:12:00,66.0,43.0,-100.00,NE,54,4.0,7.0,44,0.00,,,-99.99,,2013-07-31 01:12:00,
2013-07-30 19:42:00,64.0,42.0,-100.00,SE,136,4.0,9.0,45,0.00,,,-99.99,,2013-07-31 01:42:00,
2013-07-30 20:32:00,64.0,41.0,-100.00,SSE,167,11.0,15.0,42,0.00,,,-99.99,,2013-07-31 02:32:00,
2013-07-30 21:42:00,64.0,39.0,-100.00,NW,316,6.0,11.0,39,0.00,,,-99.99,,2013-07-31 03:42:00,
2013-07-30 22:32:00,60.0,44.0,-100.00,North,10,2.0,7.0,56,0.00,,,-99.99,,2013-07-31 04:32:00,
2013-07-30 22:42:00,60.0,45.0,-100.00,WSW,237,3.0,4.0,57,0.00,,,-99.99,,2013-07-31 04:42:00,
2013-07-30 23:02:00,58.0,44.0,-100.00,SSW,203,4.0,7.0,59,0.00,,,-99.99,,2013-07-31 05:02:00,
2013-07-30 23:11:00,58.0,44.0,-100.00,SSW,198,4.0,6.0,59,0.00,,,-99.99,,2013-07-31 05:11:00,
2013-07-30 23:42:00,59.0,41.0,-100.00,SW,232,6.0,9.0,50,0.00,,,-99.99,,2013-07-31 05:42:00,